Location: Dennehotso
(36.8461°N, 109.8435°W)
Time: 21:36:21
(UTC+00:00)

ISS - Pass Details

Date: 09 March 2021
Orbit: 418 x 422 km, 51.6° (Epoch: 16 April)

Event Time Altitude Azimuth Distance (km) Brightness Sun altitude
Exits shadow 11:42:39 12° 5° (N) 1,363 -1.0 -23.9°
Maximum altitude 11:43:35 13° 23° (NNE) 1,304 -0.9 -23.7°
Drops below altitude 10° 11:45:20 10° 54° (NE) 1,496 -0.1 -23.4°
Sets 11:48:17 0° 83° (E) 2,357 1.5 -22.8°
